September 28, 2022

Time Code Weather Temp. Visibility Ceiling Wind METAR/SPECI
14:20
V
11 °C 10 km+ 6,500 ft 290° 290° 4 kt METAR ETND 281220Z 29004KT 9999 FEW017TCU SCT045 BKN065 11/06 Q0997 BLU
13:20
V
10 °C 10 km+ 5,000 ft 290° 290° 4 kt METAR ETND 281120Z 29004KT 9999 SCT015 SCT025 BKN050 10/08 Q0996 BLU
12:20
V
10 °C 10 km+ 4,500 ft 290° 290° 4 kt METAR ETND 281020Z 29004KT 9999 SCT013 BKN045 10/08 Q0996 BLU
11:20
V
9 °C 10 km+ 3,800 ft Var Var 3 kt METAR ETND 280920Z VRB03KT 9999 SCT007 BKN038 09/08 Q0996 BLU
10:20
V
8 °C 9 km 3,200 ft 220° 220° 4 kt METAR ETND 280820Z 22004KT 9000 FEW010 BKN032 08/07 Q0995 BLU
09:20
V
7 °C 8 km 3,200 ft 250° 250° 1 kt METAR ETND 280720Z 25001KT 8000 -RA FEW005 SCT022 BKN032 07/06 Q0995 BLU
08:20
M
7 °C 8 km 2,200 ft 340° 340° 1 kt METAR ETND 280620Z 34001KT 8000 -RA FEW003 BKN022 BKN035 07/06 Q0994 WHT
07:20
M
7 °C 5 km 2,200 ft Var 000° 0 kt METAR ETND 280520Z 00000KT 5000 -DZRA BR FEW010 BKN022 BKN032 07/06 Q0994 WHT
06:20
V
7 °C 10 km+ 3,000 ft 070° 070° 2 kt METAR ETND 280420Z 07002KT 9999 -RA FEW020 BKN030 07/06 Q0994 BLU

September 27, 2022

Time Code Weather Temp. Visibility Ceiling Wind METAR/SPECI
14:20
V
9 °C 10 km+ 10,000 ft 290° 290° 10 kt METAR ETND 271220Z 29010KT 9999 -SHRA FEW015 SCT020CB BKN100 09/07 Q0995 BLU BLU TEMPO GRN
13:20
V
12 °C 10 km+ 4,000 ft 260° 260° 10 kt METAR ETND 271120Z 26010KT 9999 FEW015 FEW020TCU BKN040 12/09 Q0995 BLU BLU TEMPO GRN
12:20
V
11 °C 10 km+ 4,000 ft 260° 260° 9 kt METAR ETND 271020Z 26009KT 9999 SCT015 BKN040 BKN060 11/09 Q0995 BLU BLU TEMPO GRN
11:42
V
11 °C 10 km+ 4,000 ft 250° 250° 11 kt METAR ETND 270942Z 25011KT 9999 -RA SCT016 BKN040 11/10 Q0995 BLU BLU TEMPO GRN
11:20
M
10 °C 10 km+ 1,500 ft 260° 260° 11 kt METAR ETND 270920Z 26011KT 9999 -RA BKN015 BKN040 10/08 Q0995 WHT BLU TEMPO GRN
10:20
M
10 °C 10 km+ 1,300 ft 260° 260° 11 kt METAR ETND 270820Z 26011KT 9999 BKN013 BKN065 BKN100 10/08 Q0995 GRN BLU TEMPO GRN
09:20
V
10 °C 10 km+ 10,000 ft 260° 260° 11 kt METAR ETND 270720Z 26011KT 9999 SCT010 BKN100 10/08 Q0994 BLU BLU TEMPO GRN
08:20
V
9 °C 10 km+ 10,000 ft 260° 260° 12 kt METAR ETND 270620Z 26012KT 9999 SCT009 SCT050 BKN100 09/08 Q0993 BLU BLU TEMPO GRN
07:48
V
9 °C 10 km+ 4,500 ft 270° 270° 9 kt METAR ETND 270548Z 27009KT 9999 SCT008 BKN045 BKN070 09/08 Q0993 BLU BLU TEMPO GRN
07:20
I
9 °C 9 km 800 ft 270° 270° 9 kt METAR ETND 270520Z 27009KT 9000 -DZ BKN008 BKN025 09/09 Q0993 GRN BLU TEMPO GRN
06:20
I
10 °C 10 km+ 700 ft 270° 270° 9 kt METAR ETND 270420Z 27009KT 9999 BKN007 BKN015 10/09 Q0993 GRN BLU TEMPO GRN
Older data

We and third parties follow your internet behavior on our website with cookies. If you continue, we assume you agree with our cookie policy. Learn more